Weather History for Rome Ciampino, Italy

Change the Weather History Date:

Wednesday, August 15, 2012

  Actual Average Record
Temperature  
Mean Temperature 80 °F -  
Max Temperature 91 °F 84 °F 93 °F (1998)
Min Temperature 69 °F 62 °F 64 °F (1997)
Cooling Degree Days 15    
Growing Degree Days 30 (Base 50)    
Moisture  
Dew Point 68 °F    
Average Humidity 69    
Maximum Humidity 94    
Minimum Humidity 34    
Precipitation  
Precipitation 0.00 in 0.07 in - ()
Sea Level Pressure  
Sea Level Pressure 29.93 in    
Wind  
Wind Speed - ()    
Max Wind Speed -    
Max Gust Speed -    
Averages and records for this station are not official NWS values.
T = Trace of Precipitation, MM = Missing Value Source: Averaged Metar Reports

Daily Weather History Graph

Daily Weather History Graph

Search for Another Location

Airport:

Trip Planner

Search our weather history database for the weather conditions in past years. The results will help you decide how hot, cold, wet, or windy it might be!

Date:

Astronomy

Aug. 15, 2012 Rise Set
Actual Time 6:18 AM CEST 8:09 PM CEST
Civil Twilight 5:48 AM CEST 8:39 PM CEST
Nautical Twilight 5:11 AM CEST 9:15 PM CEST
Astronomical Twilight 4:32 AM CEST 9:54 PM CEST
Moon 3:56 AM CEST (8/15) 6:32 PM CEST (8/15)
Length of Visible Light 14h 51m
Length of Day
13h 51m
Waning Crescent, 6% of the Moon is Illuminated
Aug 15
Waning Crescent
Aug 17
New
Aug 24
First Quarter
Aug 31
Full
Sep 8
Last Quarter

Hourly Weather History & Observations

Time (CEST) Temp. Heat Index Dew Point Humidity Pressure Visibility Wind Dir Wind Speed Gust Speed Precip Events Conditions
12:15 AM 75.2 °F - 71.6 °F 89% 29.92 in - North - - N/A   Clear
12:45 AM 73.4 °F - 71.6 °F 94% 29.92 in - North - - N/A   Clear
1:15 AM 73.4 °F - 69.8 °F 88% 29.92 in - North - - N/A   Clear
1:45 AM 73.4 °F - 69.8 °F 88% 29.92 in - North - - N/A   Clear
2:15 AM 73.4 °F - 68.0 °F 83% 29.92 in - North - - N/A   Clear
2:45 AM 73.4 °F - 69.8 °F 88% 29.92 in - North - - N/A   Partly Cloudy
3:15 AM 73.4 °F - 68.0 °F 83% 29.92 in - North - - N/A   Partly Cloudy
3:45 AM 71.6 °F - 68.0 °F 88% 29.92 in - North - - N/A   Partly Cloudy
4:15 AM 71.6 °F - 68.0 °F 88% 29.92 in - North - - N/A   Partly Cloudy
4:45 AM 71.6 °F - 68.0 °F 88% 29.92 in - North - - N/A   Partly Cloudy
5:15 AM 71.6 °F - 68.0 °F 88% 29.92 in - North - - N/A   Clear
5:45 AM 69.8 °F - 66.2 °F 88% 29.89 in - North - - N/A   Clear
6:15 AM 69.8 °F - 66.2 °F 88% 29.89 in - North - - N/A   Partly Cloudy
6:45 AM 69.8 °F - 66.2 °F 88% 29.92 in - North - - N/A   Partly Cloudy
7:15 AM 71.6 °F - 68.0 °F 88% 29.92 in - North - - N/A   Partly Cloudy
7:45 AM 71.6 °F - 68.0 °F 88% 29.92 in - North - - N/A   Partly Cloudy
8:15 AM 73.4 °F - 69.8 °F 88% 29.92 in - North - - N/A   Partly Cloudy
8:45 AM 77.0 °F - 71.6 °F 83% 29.95 in - North - - N/A   Partly Cloudy
9:15 AM 80.6 °F 84.6 °F 71.6 °F 74% 29.95 in - North - - N/A   Partly Cloudy
9:45 AM 80.6 °F 84.6 °F 71.6 °F 74% 29.95 in - North - - N/A   Partly Cloudy
10:15 AM 82.4 °F 86.3 °F 69.8 °F 66% 29.95 in - North - - N/A   Partly Cloudy
10:45 AM 84.2 °F 89.6 °F 71.6 °F 66% 29.95 in - North - - N/A   Partly Cloudy
11:15 AM 86.0 °F 90.4 °F 69.8 °F 58% 29.95 in - North - - N/A   Partly Cloudy
11:45 AM 87.8 °F 91.4 °F 68.0 °F 52% 29.95 in - North - - N/A   Partly Cloudy
12:15 PM 89.6 °F 92.2 °F 66.2 °F 46% 29.95 in - North - - N/A   Partly Cloudy
12:45 PM 91.4 °F 92.1 °F 62.6 °F 38% 29.95 in - North - - N/A   Partly Cloudy
1:15 PM 91.4 °F 91.4 °F 60.8 °F 36% 29.95 in - North - - N/A   Partly Cloudy
1:45 PM 91.4 °F 90.7 °F 59.0 °F 34% 29.95 in - North - - N/A   Partly Cloudy
2:15 PM 91.4 °F 92.1 °F 62.6 °F 38% 29.92 in - North - - N/A   Partly Cloudy
2:45 PM 91.4 °F 91.4 °F 60.8 °F 36% 29.92 in - North - - N/A   Partly Cloudy
3:15 PM 91.4 °F 91.4 °F 60.8 °F 36% 29.92 in - North - - N/A   Partly Cloudy
3:45 PM 91.4 °F 92.1 °F 62.6 °F 38% 29.92 in - North - - N/A   Partly Cloudy
4:15 PM 89.6 °F 90.1 °F 62.6 °F 40% 29.92 in - North - - N/A   Partly Cloudy
4:45 PM 89.6 °F 91.1 °F 64.4 °F 43% 29.92 in - North - - N/A   Partly Cloudy
5:15 PM 87.8 °F 88.5 °F 62.6 °F 43% 29.92 in - North - - N/A   Partly Cloudy
5:45 PM 87.8 °F 89.4 °F 64.4 °F 46% 29.92 in - North - - N/A   Partly Cloudy
6:15 PM 86.0 °F 88.2 °F 66.2 °F 51% 29.92 in - North - - N/A   Partly Cloudy
6:45 PM 84.2 °F 86.6 °F 66.2 °F 55% 29.95 in - North - - N/A   Partly Cloudy
7:15 PM 84.2 °F 87.3 °F 68.0 °F 58% 29.95 in - North - - N/A   Partly Cloudy
7:45 PM 82.4 °F 85.4 °F 68.0 °F 62% 29.95 in - North - - N/A   Partly Cloudy
8:15 PM 80.6 °F 84.6 °F 71.6 °F 74% 29.95 in - North - - N/A   Clear
8:45 PM 78.8 °F - 66.2 °F 65% 29.95 in - North - - N/A   Clear
9:15 PM 78.8 °F - 71.6 °F 78% 29.95 in - North - - N/A   Clear
9:45 PM 77.0 °F - 71.6 °F 83% 29.95 in - North - - N/A   Clear
10:15 PM 77.0 °F - 71.6 °F 83% 29.95 in - North - - N/A   Clear
10:45 PM 75.2 °F - 71.6 °F 89% 29.95 in - North - - N/A   Clear
11:15 PM 75.2 °F - 71.6 °F 89% 29.95 in - North - - N/A   Clear
11:45 PM 73.4 °F - 69.8 °F 88% 29.98 in - North - - N/A   Scattered Clouds